EW0362 Weather Reports


Display with metric or nautical units.
time (UTC)temp
F
wind
direction
speed
MPH
gust
MPH
rain 1hr
in
rain 24hr
in
rain mn
in
humidity
%
barometer
mb
20260509230704 48 162 0.0 1.0 0.03 0.31 0.31 95 1012.1
20260509230204 48 210 0.0 1.0 0.03 0.31 0.31 95 1012.0
20260509225206 48 210 0.0 0.0 0.03 0.30 0.30 95 1011.9
20260509224705 48 210 0.0 2.0 0.03 0.30 0.30 95 1011.9
20260509221205 49 33 0.0 2.0 0.07 0.28 0.28 95 1012.3
20260509215705 49 24 0.0 1.0 0.07 0.27 0.27 95 1012.5
20260509215205 49 24 0.0 1.0 0.08 0.27 0.27 95 1012.6
20260509213704 49 53 0.0 0.0 0.06 0.25 0.25 94 1012.6
20260509212704 49 53 0.0 1.0 0.06 0.24 0.24 94 1012.7
20260509212205 49 53 0.0 1.0 0.05 0.23 0.23 94 1012.7
20260509210705 49 93 0.0 2.0 0.04 0.21 0.21 94 1012.8
20260509210205 49 93 0.0 2.0 0.04 0.20 0.20 94 1012.9
20260509205704 49 92 0.0 3.0 0.04 0.20 0.20 94 1012.7
20260509203704 49 344 0.0 2.0 0.03 0.19 0.19 94 1012.7
20260509202705 49 92 0.0 3.0 0.02 0.18 0.18 94 1012.6
20260509193705 50 46 0.0 2.0 0.00 0.16 0.16 93 1012.4
20260509191704 50 37 0.0 1.0 0.00 0.16 0.16 94 1012.7
20260509190205 49 36 2.0 5.0 0.01 0.16 0.16 94 1012.4
20260509185705 49 68 1.0 2.0 0.02 0.16 0.16 95 1012.7
20260509184705 49 40 0.0 1.0 0.02 0.16 0.16 94 1013.0
20260509184204 49 40 0.0 3.0 0.02 0.16 0.16 95 1013.0
20260509183705 49 4 1.0 3.0 0.02 0.16 0.16 94 1013.0
20260509183205 48 63 0.0 2.0 0.03 0.16 0.16 94 1013.2
20260509182204 48 36 0.0 0.0 0.04 0.16 0.16 94 1013.4
20260509181705 48 36 0.0 0.0 0.04 0.16 0.16 94 1013.3
20260509180704 48 36 0.0 0.0 0.03 0.15 0.15 94 1013.5
20260509180204 48 36 0.0 0.0 0.04 0.15 0.15 94 1013.5
20260509174204 48 333 0.0 0.0 0.05 0.14 0.14 94 1013.7
20260509172704 48 304 0.0 0.0 0.05 0.13 0.13 93 1013.8
20260509172204 48 291 0.0 0.0 0.05 0.12 0.12 93 1014.1
20260509165205 47 292 0.0 0.0 0.04 0.10 0.10 93 1014.1
20260509164704 47 291 0.0 1.0 0.04 0.09 0.09 93 1014.3
20260509163205 48 295 0.0 0.0 0.04 0.08 0.08 92 1013.9
20260509161704 48 242 1.0 1.0 0.04 0.07 0.07 93 1013.8
20260509160204 47 241 0.0 2.0 0.03 0.06 0.06 92 1014.1
20260509153704 47 238 0.0 0.0 0.02 0.05 0.05 91 1014.6
20260509153204 47 238 0.0 0.0 0.02 0.04 0.04 91 1014.7
20260509152704 47 238 0.0 0.0 0.02 0.04 0.04 91 1014.7
20260509150204 47 237 0.0 0.0 0.01 0.03 0.03 91 1014.9
20260509145704 47 237 0.0 0.0 0.02 0.03 0.03 90 1014.7
20260509145205 47 237 0.0 0.0 0.02 0.03 0.03 90 1014.8
20260509143204 48 238 0.0 1.0 0.01 0.02 0.02 90 1015.0
20260509142704 48 240 0.0 0.0 0.02 0.02 0.02 90 1015.0
20260509141704 48 240 0.0 0.0 0.02 0.02 0.02 90 1015.0
20260509135705 48 239 0.0 0.0 0.01 0.01 0.01 87 1014.8
20260509134705 48 240 0.0 1.0 0.01 0.01 0.01 89 1014.7
20260509134204 48 251 0.0 0.0 0.01 0.01 0.01 89 1014.6
20260509133704 48 251 0.0 0.0 0.01 0.01 0.01 89 1014.6
20260509132204 47 251 0.0 0.0 0.00 0.00 0.00 87 1014.5
20260509131704 47 251 0.0 0.0 0.00 0.00 0.00 85 1014.5
20260509131205 47 251 0.0 0.0 0.00 0.00 0.00 83 1014.5
20260509125705 46 251 0.0 0.0 0.00 0.00 0.00 80 1014.5
20260509124704 46 251 0.0 0.0 0.00 0.00 0.00 81 1014.7
20260509124204 46 251 0.0 0.0 0.00 0.00 0.00 82 1014.7
20260509123204 45 250 0.0 1.0 0.00 0.00 0.00 85 1014.8
20260509122705 45 250 0.0 0.0 0.00 0.00 0.00 86 1015.0
20260509120704 43 250 1.0 2.0 0.00 0.00 0.00 88 1015.0
20260509120204 42 252 3.0 3.0 0.00 0.00 0.00 90 1014.8
20260509114205 41 185 0.0 0.0 0.00 0.00 0.00 92 1014.8
20260509113704 40 185 0.0 0.0 0.00 0.00 0.00 92 1014.8
20260509110704 38 185 0.0 0.0 0.00 0.00 0.00 93 1015.1
20260509110204 38 185 0.0 0.0 0.00 0.00 0.00 93 1015.0
20260509105704 37 185 0.0 0.0 0.00 0.00 0.00 93 1014.9
20260509105204 37 185 0.0 0.0 0.00 0.00 0.00 93 1015.1
20260509104705 37 185 0.0 0.0 0.00 0.00 0.00 93 1015.1
20260509103704 36 185 0.0 0.0 0.00 0.00 0.00 93 1014.9
20260509103204 36 185 0.0 0.0 0.00 0.00 0.00 93 1015.0
20260509102704 36 185 0.0 0.0 0.00 0.00 0.00 93 1015.1
20260509102205 36 185 0.0 0.0 0.00 0.00 0.00 93 1015.1
20260509101204 35 185 0.0 0.0 0.00 0.00 0.00 93 1014.8
20260509100704 35 185 0.0 0.0 0.00 0.00 0.00 93 1014.7
20260509095204 35 185 0.0 0.0 0.00 0.00 0.00 93 1014.5
20260509094704 34 185 0.0 0.0 0.00 0.00 0.00 93 1014.5
20260509092704 34 185 0.0 0.0 0.00 0.00 0.00 92 1014.2
20260509091205 34 185 0.0 0.0 0.00 0.00 0.00 92 1014.3
20260509090204 34 185 0.0 0.0 0.00 0.00 0.00 92 1014.3
20260509085704 34 185 0.0 0.0 0.00 0.00 0.00 92 1014.3
20260509085204 34 185 0.0 0.0 0.00 0.00 0.00 92 1014.1
20260509084705 34 185 0.0 0.0 0.00 0.00 0.00 92 1014.0
20260509083704 34 185 0.0 0.0 0.00 0.00 0.00 92 1013.9
20260509082704 34 185 0.0 0.0 0.00 0.00 0.00 92 1014.0
20260509082204 34 185 0.0 0.0 0.00 0.00 0.00 91 1013.9
20260509081204 34 185 0.0 0.0 0.00 0.00 0.00 91 1013.9
20260509080704 35 185 0.0 0.0 0.00 0.00 0.00 91 1013.9
20260509074704 35 185 0.0 0.0 0.00 0.00 0.00 90 1013.9
20260509074204 35 185 0.0 0.0 0.00 0.00 0.00 90 1013.9
20260509071204 35 185 0.0 0.0 0.00 0.00 0.00 90 1013.9
20260509070705 36 185 0.0 0.0 0.00 0.00 0.00 89 1013.8
20260509070204 36 185 0.0 0.0 0.00 0.00 0.00 90 1013.7
20260509064704 36 185 0.0 0.0 0.00 0.00 0.00 89 1013.7
20260509063204 37 185 0.0 0.0 0.00 0.00 0.00 88 1013.8
20260509062704 37 185 0.0 0.0 0.00 0.00 0.00 88 1013.8
20260509062204 37 185 0.0 0.0 0.00 0.00 0.00 88 1013.8
20260509061704 37 185 0.0 0.0 0.00 0.00 0.00 87 1013.8
20260509061204 37 185 0.0 0.0 0.00 0.00 0.00 88 1013.9
20260509060704 37 185 0.0 0.0 0.00 0.00 0.00 87 1013.9
20260509060204 37 185 0.0 0.0 0.00 0.00 0.00 87 1013.9
20260509055204 38 185 0.0 0.0 0.00 0.00 0.00 87 1013.9
20260509054704 38 185 0.0 0.0 0.00 0.00 0.00 86 1013.8
20260509054203 38 185 0.0 0.0 0.00 0.00 0.00 87 1013.9
20260509053704 38 185 0.0 0.0 0.00 0.00 0.00 87 1013.8
20260509053203 38 185 0.0 0.0 0.00 0.00 0.00 86 1013.7
20260509051704 39 185 0.0 0.0 0.00 0.00 0.00 85 1013.6
20260509050204 39 185 0.0 0.0 0.00 0.00 0.00 84 1013.7
20260509045704 40 185 0.0 0.0 0.00 0.00 0.00 84 1013.6
20260509043703 40 185 0.0 0.0 0.00 0.00 0.00 82 1013.6
20260509043204 41 185 0.0 0.0 0.00 0.00 0.00 82 1013.5
20260509042704 41 185 0.0 0.0 0.00 0.00 0.00 82 1013.5
20260509041704 41 185 0.0 0.0 0.00 0.00 0.00 81 1013.4
20260509040204 42 185 0.0 0.0 0.00 0.00 0.00 79 1013.3
20260509035705 42 185 0.0 0.0 0.00 0.00 0.00 78 1013.3
20260509033204 43 185 0.0 0.0 0.00 0.00 0.00 76 1013.1
20260509032703 43 185 0.0 0.0 0.00 0.00 0.00 76 1013.0
20260509032205 43 185 0.0 0.0 0.00 0.00 0.00 76 1013.0
20260509030704 44 185 0.0 0.0 0.00 0.00 0.00 74 1012.8
20260509030204 44 185 0.0 0.0 0.00 0.00 0.00 74 1012.8
20260509024704 45 185 0.0 0.0 0.00 0.00 0.00 71 1012.7
20260509024203 45 185 0.0 0.0 0.00 0.00 0.00 71 1012.7
20260509023204 46 185 0.0 0.0 0.00 0.00 0.00 70 1012.7
20260509022703 46 185 0.0 0.0 0.00 0.00 0.00 69 1012.6
20260509021703 47 185 0.0 0.0 0.00 0.00 0.00 69 1012.5
20260509020704 48 185 0.0 0.0 0.00 0.00 0.00 64 1012.3
20260509015704 48 185 0.0 0.0 0.00 0.00 0.00 65 1012.2
20260509015203 48 185 0.0 0.0 0.00 0.00 0.00 65 1012.1
20260509014703 49 185 0.0 0.0 0.00 0.00 0.00 65 1012.0
20260509013203 49 185 0.0 0.0 0.00 0.00 0.00 62 1011.8
20260509012204 50 185 0.0 0.0 0.00 0.00 0.00 61 1011.7
20260509011704 50 185 0.0 0.0 0.00 0.00 0.00 60 1011.6
20260509011203 50 185 0.0 0.0 0.00 0.00 0.00 58 1011.4
20260509010704 50 185 0.0 0.0 0.00 0.00 0.00 56 1011.4
20260509000205 54 265 0.0 0.0 0.00 0.00 0.00 49 1010.2
20260508234704 55 264 0.0 3.0 0.00 0.00 0.00 49 1010.0
20260508234205 55 269 0.0 2.0 0.00 0.00 0.00 49 1009.9
20260508233705 55 269 1.0 3.0 0.00 0.00 0.00 48 1009.8